Location: Hochstatterhof
(48.7256°N, 10.3487°E)
Time: 01:24:03
(UTC+00:00)

H-2A R/B - Pass Details

Date: 26 September 2023
Orbit: 731 x 835 km, 98.2° (Epoch: 30 November)

Event Time Altitude Azimuth Distance (km) Brightness Sun altitude
Rises 04:26:24 0° 14° (NNE) 3,385 5.6 -8.0°
Reaches altitude 10° 04:28:45 10° 15° (NNE) 2,454 4.9 -7.7°
Maximum altitude 04:34:14 86° 104° (ESE) 845 2.3 -6.8°
Drops below altitude 10° 04:39:41 10° 194° (SSW) 2,437 4.4 -5.9°
Sets 04:42:01 0° 195° (SSW) 3,360 5.1 -5.5°
